| time (UTC) | temp F | wind direction | speed MPH | gust MPH | rain 1hr in | rain 24hr in | rain mn in | humidity % | barometer mb |
| 20260507015014 | 59 | 168 | 6.0 | 9.0 | 0.00 | 0.00 | 0.00 | 77 | 1007.3 |
| 20260507014815 | 58 | 173 | 6.0 | 10.0 | 0.00 | 0.00 | 0.00 | 78 | 1007.3 |
| 20260507014614 | 58 | 178 | 6.0 | 12.0 | 0.00 | 0.00 | 0.00 | 78 | 1007.3 |
| 20260507014415 | 58 | 179 | 6.0 | 12.0 | 0.00 | 0.00 | 0.00 | 78 | 1007.3 |
| 20260507014014 | 59 | 182 | 6.0 | 12.0 | 0.00 | 0.00 | 0.00 | 77 | 1007.2 |
| 20260507013815 | 59 | 181 | 6.0 | 13.0 | 0.00 | 0.00 | 0.00 | 77 | 1007.3 |
| 20260507013615 | 59 | 183 | 6.0 | 13.0 | 0.00 | 0.00 | 0.00 | 78 | 1007.2 |
| 20260507013415 | 59 | 182 | 6.0 | 13.0 | 0.00 | 0.00 | 0.00 | 78 | 1007.2 |
| 20260507013216 | 59 | 182 | 6.0 | 13.0 | 0.00 | 0.00 | 0.00 | 78 | 1007.1 |
| 20260507012815 | 58 | 182 | 6.0 | 11.0 | 0.00 | 0.00 | 0.00 | 78 | 1007.2 |
| 20260507012615 | 58 | 179 | 6.0 | 11.0 | 0.00 | 0.00 | 0.00 | 78 | 1007.2 |
| 20260507012417 | 58 | 178 | 7.0 | 11.0 | 0.00 | 0.00 | 0.00 | 78 | 1007.2 |
| 20260507012016 | 58 | 177 | 7.0 | 11.0 | 0.00 | 0.00 | 0.00 | 78 | 1007.1 |
| 20260507011614 | 59 | 179 | 7.0 | 11.0 | 0.00 | 0.00 | 0.00 | 77 | 1007.0 |
| 20260507011416 | 59 | 179 | 7.0 | 14.0 | 0.00 | 0.00 | 0.00 | 77 | 1007.0 |
| 20260507011216 | 59 | 178 | 7.0 | 14.0 | 0.00 | 0.00 | 0.00 | 77 | 1007.0 |
| 20260507011014 | 59 | 175 | 7.0 | 14.0 | 0.00 | 0.00 | 0.00 | 77 | 1007.0 |
| 20260507010815 | 59 | 174 | 7.0 | 14.0 | 0.00 | 0.00 | 0.00 | 77 | 1006.9 |
| 20260507010614 | 59 | 171 | 7.0 | 15.0 | 0.00 | 0.00 | 0.00 | 76 | 1007.0 |
| 20260507010016 | 59 | 172 | 7.0 | 15.0 | 0.00 | 0.00 | 0.00 | 76 | 1006.9 |
| 20260507005816 | 59 | 173 | 7.0 | 15.0 | 0.00 | 0.00 | 0.00 | 76 | 1006.9 |
| 20260507005414 | 60 | 178 | 7.0 | 13.0 | 0.00 | 0.00 | 0.00 | 76 | 1006.8 |
| 20260507005214 | 60 | 179 | 7.0 | 13.0 | 0.00 | 0.00 | 0.00 | 76 | 1006.8 |
| 20260507004815 | 60 | 182 | 8.0 | 12.0 | 0.00 | 0.00 | 0.00 | 75 | 1006.6 |
| 20260507004615 | 60 | 182 | 8.0 | 12.0 | 0.00 | 0.00 | 0.00 | 75 | 1006.6 |
| 20260507004415 | 60 | 179 | 8.0 | 15.0 | 0.00 | 0.00 | 0.00 | 74 | 1006.5 |
| 20260507004214 | 60 | 176 | 9.0 | 15.0 | 0.00 | 0.00 | 0.00 | 74 | 1006.6 |
| 20260507003815 | 60 | 167 | 9.0 | 17.0 | 0.00 | 0.00 | 0.00 | 74 | 1006.5 |
| 20260507003614 | 60 | 166 | 9.0 | 17.0 | 0.00 | 0.00 | 0.00 | 73 | 1006.4 |
| 20260507003414 | 60 | 169 | 9.0 | 17.0 | 0.00 | 0.00 | 0.00 | 73 | 1006.4 |
| 20260507003214 | 60 | 169 | 10.0 | 17.0 | 0.00 | 0.00 | 0.00 | 73 | 1006.4 |
| 20260507003014 | 60 | 167 | 10.0 | 20.0 | 0.00 | 0.00 | 0.00 | 73 | 1006.5 |
| 20260507002814 | 61 | 164 | 10.0 | 20.0 | 0.00 | 0.00 | 0.00 | 73 | 1006.5 |
| 20260507002615 | 61 | 161 | 10.0 | 20.0 | 0.00 | 0.00 | 0.00 | 73 | 1006.5 |
| 20260507002414 | 61 | 156 | 10.0 | 20.0 | 0.00 | 0.00 | 0.00 | 72 | 1006.4 |
| 20260507002215 | 61 | 153 | 10.0 | 20.0 | 0.00 | 0.00 | 0.00 | 72 | 1006.3 |
| 20260507002014 | 61 | 152 | 10.0 | 18.0 | 0.00 | 0.00 | 0.00 | 72 | 1006.3 |
| 20260507001815 | 61 | 151 | 9.0 | 17.0 | 0.00 | 0.00 | 0.00 | 72 | 1006.3 |
| 20260507001615 | 61 | 149 | 9.0 | 18.0 | 0.00 | 0.00 | 0.00 | 72 | 1006.3 |
| 20260507001414 | 61 | 150 | 9.0 | 18.0 | 0.00 | 0.00 | 0.00 | 72 | 1006.2 |
| 20260507001214 | 61 | 150 | 8.0 | 18.0 | 0.00 | 0.00 | 0.00 | 72 | 1006.1 |
| 20260507001014 | 61 | 152 | 8.0 | 18.0 | 0.00 | 0.00 | 0.00 | 72 | 1006.1 |
| 20260507000614 | 61 | 157 | 9.0 | 14.0 | 0.00 | 0.00 | 0.00 | 72 | 1006.0 |
| 20260507000413 | 61 | 157 | 9.0 | 14.0 | 0.00 | 0.00 | 0.00 | 71 | 1006.0 |
| 20260507000214 | 61 | 158 | 9.0 | 14.0 | 0.00 | 0.00 | 0.00 | 71 | 1006.0 |
| 20260506235814 | 62 | 155 | 10.0 | 16.0 | 0.00 | 0.00 | 0.00 | 71 | 1006.0 |
| 20260506235614 | 62 | 153 | 10.0 | 18.0 | 0.00 | 0.00 | 0.00 | 71 | 1006.0 |
| 20260506235414 | 62 | 152 | 10.0 | 18.0 | 0.00 | 0.00 | 0.00 | 71 | 1006.0 |
| 20260506235214 | 62 | 150 | 10.0 | 18.0 | 0.00 | 0.00 | 0.00 | 71 | 1006.0 |
| 20260506235014 | 62 | 148 | 10.0 | 18.0 | 0.00 | 0.00 | 0.00 | 71 | 1006.0 |
| 20260506234614 | 62 | 146 | 10.0 | 18.0 | 0.00 | 0.00 | 0.00 | 71 | 1005.9 |
| 20260506234415 | 62 | 144 | 10.0 | 18.0 | 0.00 | 0.00 | 0.00 | 71 | 1005.9 |
| 20260506234014 | 62 | 146 | 9.0 | 18.0 | 0.00 | 0.00 | 0.00 | 71 | 1005.8 |
| 20260506233815 | 62 | 147 | 9.0 | 18.0 | 0.00 | 0.00 | 0.00 | 71 | 1005.8 |
| 20260506233614 | 62 | 147 | 9.0 | 18.0 | 0.00 | 0.00 | 0.00 | 71 | 1005.8 |
| 20260506233413 | 62 | 149 | 9.0 | 18.0 | 0.00 | 0.00 | 0.00 | 71 | 1005.8 |
| 20260506233214 | 62 | 152 | 10.0 | 17.0 | 0.00 | 0.00 | 0.00 | 71 | 1005.7 |
| 20260506233013 | 62 | 153 | 10.0 | 19.0 | 0.00 | 0.00 | 0.00 | 71 | 1005.7 |
| 20260506232614 | 62 | 154 | 10.0 | 19.0 | 0.00 | 0.00 | 0.00 | 70 | 1005.8 |
| 20260506232214 | 62 | 154 | 10.0 | 19.0 | 0.00 | 0.00 | 0.00 | 70 | 1005.8 |
| 20260506232014 | 62 | 153 | 9.0 | 17.0 | 0.00 | 0.00 | 0.00 | 70 | 1005.8 |
| 20260506231814 | 62 | 151 | 9.0 | 17.0 | 0.00 | 0.00 | 0.00 | 70 | 1005.8 |
| 20260506231614 | 62 | 152 | 9.0 | 17.0 | 0.00 | 0.00 | 0.00 | 70 | 1005.8 |
| 20260506231414 | 62 | 152 | 10.0 | 16.0 | 0.00 | 0.00 | 0.00 | 70 | 1005.8 |
| 20260506231014 | 62 | 153 | 10.0 | 17.0 | 0.00 | 0.00 | 0.00 | 70 | 1005.7 |
| 20260506230614 | 62 | 154 | 10.0 | 19.0 | 0.00 | 0.00 | 0.00 | 70 | 1005.7 |
| 20260506230414 | 63 | 154 | 11.0 | 19.0 | 0.00 | 0.00 | 0.00 | 70 | 1005.6 |
| 20260506230214 | 63 | 153 | 10.0 | 19.0 | 0.00 | 0.00 | 0.00 | 70 | 1005.6 |
| 20260506230014 | 63 | 151 | 10.0 | 22.0 | 0.00 | 0.00 | 0.00 | 69 | 1005.6 |
| 20260506225814 | 63 | 147 | 10.0 | 22.0 | 0.00 | 0.00 | 0.00 | 69 | 1005.5 |
| 20260506225614 | 63 | 146 | 10.0 | 22.0 | 0.00 | 0.00 | 0.00 | 69 | 1005.4 |
| 20260506225414 | 63 | 143 | 9.0 | 22.0 | 0.00 | 0.00 | 0.00 | 69 | 1005.4 |
| 20260506225214 | 63 | 143 | 9.0 | 22.0 | 0.00 | 0.00 | 0.00 | 69 | 1005.4 |
| 20260506225014 | 63 | 142 | 9.0 | 18.0 | 0.00 | 0.00 | 0.00 | 70 | 1005.4 |
| 20260506224814 | 63 | 142 | 8.0 | 18.0 | 0.00 | 0.00 | 0.00 | 70 | 1005.3 |
| 20260506224614 | 63 | 142 | 8.0 | 17.0 | 0.00 | 0.00 | 0.00 | 70 | 1005.4 |
| 20260506224414 | 63 | 142 | 8.0 | 17.0 | 0.00 | 0.00 | 0.00 | 70 | 1005.3 |
| 20260506224213 | 63 | 141 | 8.0 | 17.0 | 0.00 | 0.00 | 0.00 | 70 | 1005.4 |
| 20260506223814 | 63 | 141 | 8.0 | 17.0 | 0.00 | 0.00 | 0.00 | 70 | 1005.3 |
| 20260506223614 | 62 | 139 | 8.0 | 16.0 | 0.00 | 0.00 | 0.00 | 70 | 1005.3 |
| 20260506223414 | 62 | 140 | 8.0 | 17.0 | 0.00 | 0.00 | 0.00 | 71 | 1005.3 |
| 20260506223214 | 62 | 141 | 9.0 | 17.0 | 0.00 | 0.00 | 0.00 | 71 | 1005.3 |
| 20260506223014 | 62 | 140 | 9.0 | 17.0 | 0.00 | 0.00 | 0.00 | 70 | 1005.2 |
| 20260506222815 | 62 | 142 | 9.0 | 17.0 | 0.00 | 0.00 | 0.00 | 70 | 1005.2 |
| 20260506222613 | 62 | 143 | 9.0 | 17.0 | 0.00 | 0.00 | 0.00 | 70 | 1005.1 |
| 20260506222413 | 62 | 142 | 9.0 | 18.0 | 0.00 | 0.00 | 0.00 | 70 | 1005.0 |
| 20260506222213 | 62 | 141 | 9.0 | 18.0 | 0.00 | 0.00 | 0.00 | 70 | 1005.0 |
| 20260506222013 | 63 | 142 | 9.0 | 19.0 | 0.00 | 0.00 | 0.00 | 70 | 1005.0 |
| 20260506221814 | 63 | 141 | 9.0 | 19.0 | 0.00 | 0.00 | 0.00 | 70 | 1005.0 |
| 20260506221614 | 63 | 141 | 9.0 | 19.0 | 0.00 | 0.00 | 0.00 | 70 | 1005.0 |
| 20260506221414 | 63 | 142 | 9.0 | 19.0 | 0.00 | 0.00 | 0.00 | 70 | 1004.9 |
| 20260506221214 | 63 | 140 | 9.0 | 19.0 | 0.00 | 0.00 | 0.00 | 70 | 1004.9 |
| 20260506220814 | 63 | 139 | 8.0 | 17.0 | 0.00 | 0.00 | 0.00 | 70 | 1004.9 |
| 20260506220414 | 63 | 138 | 8.0 | 18.0 | 0.00 | 0.00 | 0.00 | 69 | 1004.7 |
| 20260506220214 | 63 | 138 | 9.0 | 18.0 | 0.00 | 0.00 | 0.00 | 69 | 1004.8 |
| 20260506220014 | 63 | 137 | 9.0 | 18.0 | 0.00 | 0.00 | 0.00 | 69 | 1004.8 |
| 20260506215814 | 63 | 139 | 9.0 | 18.0 | 0.00 | 0.00 | 0.00 | 69 | 1004.8 |
| 20260506215614 | 63 | 140 | 9.0 | 18.0 | 0.00 | 0.00 | 0.00 | 68 | 1004.8 |
| 20260506215414 | 63 | 140 | 9.0 | 18.0 | 0.00 | 0.00 | 0.00 | 68 | 1004.9 |
| 20260506215213 | 63 | 140 | 9.0 | 18.0 | 0.00 | 0.00 | 0.00 | 68 | 1004.9 |
| 20260506215014 | 63 | 140 | 9.0 | 18.0 | 0.00 | 0.00 | 0.00 | 68 | 1004.9 |
| 20260506214814 | 63 | 138 | 9.0 | 15.0 | 0.00 | 0.00 | 0.00 | 68 | 1004.8 |
| 20260506214613 | 63 | 137 | 9.0 | 16.0 | 0.00 | 0.00 | 0.00 | 68 | 1004.9 |
| 20260506214414 | 64 | 137 | 9.0 | 17.0 | 0.00 | 0.00 | 0.00 | 68 | 1004.9 |
| 20260506214214 | 64 | 139 | 9.0 | 17.0 | 0.00 | 0.00 | 0.00 | 67 | 1004.9 |
| 20260506214014 | 64 | 139 | 9.0 | 17.0 | 0.00 | 0.00 | 0.00 | 67 | 1004.9 |
| 20260506213814 | 64 | 140 | 9.0 | 17.0 | 0.00 | 0.00 | 0.00 | 67 | 1004.9 |
| 20260506213414 | 64 | 139 | 9.0 | 16.0 | 0.00 | 0.00 | 0.00 | 67 | 1004.8 |
| 20260506213214 | 64 | 139 | 9.0 | 16.0 | 0.00 | 0.00 | 0.00 | 67 | 1004.8 |
| 20260506213014 | 64 | 138 | 9.0 | 16.0 | 0.00 | 0.00 | 0.00 | 67 | 1004.8 |
| 20260506212814 | 64 | 137 | 9.0 | 16.0 | 0.00 | 0.00 | 0.00 | 67 | 1004.8 |
| 20260506212414 | 64 | 140 | 10.0 | 17.0 | 0.00 | 0.00 | 0.00 | 66 | 1004.8 |
| 20260506212214 | 64 | 140 | 10.0 | 19.0 | 0.00 | 0.00 | 0.00 | 66 | 1004.7 |
| 20260506212013 | 64 | 140 | 10.0 | 19.0 | 0.00 | 0.00 | 0.00 | 66 | 1004.7 |
| 20260506211813 | 64 | 141 | 10.0 | 19.0 | 0.00 | 0.00 | 0.00 | 66 | 1004.8 |
| 20260506211614 | 65 | 138 | 10.0 | 21.0 | 0.00 | 0.00 | 0.00 | 66 | 1004.8 |
| 20260506211214 | 65 | 135 | 10.0 | 21.0 | 0.00 | 0.00 | 0.00 | 65 | 1004.7 |
| 20260506211014 | 65 | 135 | 11.0 | 21.0 | 0.00 | 0.00 | 0.00 | 65 | 1004.7 |
| 20260506210813 | 65 | 135 | 11.0 | 21.0 | 0.00 | 0.00 | 0.00 | 65 | 1004.6 |
| 20260506210613 | 65 | 138 | 11.0 | 21.0 | 0.00 | 0.00 | 0.00 | 65 | 1004.6 |
| 20260506210413 | 65 | 140 | 11.0 | 22.0 | 0.00 | 0.00 | 0.00 | 65 | 1004.7 |
| 20260506210213 | 65 | 140 | 11.0 | 22.0 | 0.00 | 0.00 | 0.00 | 64 | 1004.7 |
| 20260506210014 | 65 | 141 | 11.0 | 23.0 | 0.00 | 0.00 | 0.00 | 64 | 1004.7 |
| 20260506205814 | 65 | 141 | 11.0 | 23.0 | 0.00 | 0.00 | 0.00 | 64 | 1004.7 |
| 20260506205614 | 65 | 140 | 11.0 | 23.0 | 0.00 | 0.00 | 0.00 | 64 | 1004.7 |
| 20260506205414 | 65 | 141 | 11.0 | 23.0 | 0.00 | 0.00 | 0.00 | 64 | 1004.7 |
| 20260506205214 | 65 | 141 | 11.0 | 23.0 | 0.00 | 0.00 | 0.00 | 64 | 1004.7 |
| 20260506205014 | 65 | 142 | 11.0 | 20.0 | 0.00 | 0.00 | 0.00 | 64 | 1004.7 |
| 20260506204814 | 65 | 142 | 11.0 | 21.0 | 0.00 | 0.00 | 0.00 | 64 | 1004.6 |
| 20260506204614 | 65 | 141 | 11.0 | 21.0 | 0.00 | 0.00 | 0.00 | 64 | 1004.6 |
| 20260506204213 | 65 | 140 | 11.0 | 28.0 | 0.00 | 0.00 | 0.00 | 64 | 1004.6 |
| 20260506204014 | 65 | 137 | 12.0 | 28.0 | 0.00 | 0.00 | 0.00 | 64 | 1004.6 |
| 20260506203613 | 65 | 140 | 11.0 | 28.0 | 0.00 | 0.00 | 0.00 | 64 | 1004.4 |
| 20260506203414 | 65 | 140 | 11.0 | 24.0 | 0.00 | 0.00 | 0.00 | 63 | 1004.4 |
| 20260506203214 | 65 | 141 | 10.0 | 24.0 | 0.00 | 0.00 | 0.00 | 63 | 1004.4 |
| 20260506203014 | 65 | 142 | 9.0 | 24.0 | 0.00 | 0.00 | 0.00 | 63 | 1004.4 |
| 20260506202814 | 65 | 140 | 9.0 | 24.0 | 0.00 | 0.00 | 0.00 | 63 | 1004.5 |
| 20260506202613 | 65 | 137 | 9.0 | 23.0 | 0.00 | 0.00 | 0.00 | 63 | 1004.5 |
| 20260506202413 | 65 | 135 | 9.0 | 23.0 | 0.00 | 0.00 | 0.00 | 63 | 1004.5 |
| 20260506202013 | 66 | 134 | 9.0 | 22.0 | 0.00 | 0.00 | 0.00 | 63 | 1004.4 |
| 20260506201613 | 66 | 136 | 9.0 | 22.0 | 0.00 | 0.00 | 0.00 | 63 | 1004.4 |
| 20260506201413 | 66 | 137 | 9.0 | 22.0 | 0.00 | 0.00 | 0.00 | 62 | 1004.5 |
| 20260506201213 | 66 | 138 | 9.0 | 22.0 | 0.00 | 0.00 | 0.00 | 62 | 1004.4 |
| 20260506201013 | 66 | 138 | 9.0 | 20.0 | 0.00 | 0.00 | 0.00 | 62 | 1004.4 |
| 20260506200413 | 66 | 139 | 10.0 | 18.0 | 0.00 | 0.00 | 0.00 | 62 | 1004.4 |
| 20260506200213 | 66 | 141 | 11.0 | 18.0 | 0.00 | 0.00 | 0.00 | 62 | 1004.4 |
| 20260506200013 | 66 | 141 | 11.0 | 18.0 | 0.00 | 0.00 | 0.00 | 62 | 1004.4 |
| 20260506195813 | 66 | 140 | 11.0 | 21.0 | 0.00 | 0.00 | 0.00 | 62 | 1004.4 |
| 20260506195613 | 66 | 140 | 11.0 | 22.0 | 0.00 | 0.00 | 0.00 | 62 | 1004.4 |
| 20260506195413 | 66 | 141 | 10.0 | 22.0 | 0.00 | 0.00 | 0.00 | 62 | 1004.2 |
| 20260506195213 | 66 | 140 | 10.0 | 22.0 | 0.00 | 0.00 | 0.00 | 62 | 1004.3 |
| 20260506195013 | 66 | 139 | 10.0 | 22.0 | 0.00 | 0.00 | 0.00 | 62 | 1004.2 |
| 20260506194813 | 66 | 140 | 10.0 | 22.0 | 0.00 | 0.00 | 0.00 | 62 | 1004.2 |
| 20260506194613 | 66 | 143 | 10.0 | 20.0 | 0.00 | 0.00 | 0.00 | 62 | 1004.1 |
| 20260506194413 | 66 | 143 | 10.0 | 20.0 | 0.00 | 0.00 | 0.00 | 62 | 1004.2 |
| 20260506194213 | 66 | 144 | 10.0 | 18.0 | 0.00 | 0.00 | 0.00 | 61 | 1004.2 |
| 20260506194013 | 66 | 144 | 10.0 | 18.0 | 0.00 | 0.00 | 0.00 | 61 | 1004.2 |
| 20260506193613 | 67 | 142 | 9.0 | 20.0 | 0.00 | 0.00 | 0.00 | 61 | 1004.2 |
| 20260506193413 | 67 | 142 | 9.0 | 20.0 | 0.00 | 0.00 | 0.00 | 61 | 1004.2 |
| 20260506193213 | 67 | 140 | 9.0 | 20.0 | 0.00 | 0.00 | 0.00 | 60 | 1004.2 |
| 20260506193013 | 67 | 140 | 9.0 | 20.0 | 0.00 | 0.00 | 0.00 | 60 | 1004.2 |
| 20260506192813 | 67 | 142 | 9.0 | 20.0 | 0.00 | 0.00 | 0.00 | 60 | 1004.2 |
| 20260506192613 | 67 | 144 | 9.0 | 16.0 | 0.00 | 0.00 | 0.00 | 60 | 1004.2 |
| 20260506192413 | 67 | 145 | 9.0 | 16.0 | 0.00 | 0.00 | 0.00 | 60 | 1004.2 |
| 20260506192213 | 67 | 147 | 9.0 | 16.0 | 0.00 | 0.00 | 0.00 | 60 | 1004.4 |
| 20260506192013 | 67 | 148 | 9.0 | 20.0 | 0.00 | 0.00 | 0.00 | 60 | 1004.4 |
| 20260506191413 | 67 | 145 | 9.0 | 20.0 | 0.00 | 0.00 | 0.00 | 59 | 1004.3 |
| 20260506191213 | 67 | 143 | 10.0 | 20.0 | 0.00 | 0.00 | 0.00 | 59 | 1004.3 |
| 20260506191013 | 67 | 142 | 10.0 | 20.0 | 0.00 | 0.00 | 0.00 | 59 | 1004.3 |
| 20260506190813 | 67 | 142 | 11.0 | 20.0 | 0.00 | 0.00 | 0.00 | 58 | 1004.3 |
| 20260506190413 | 67 | 143 | 12.0 | 24.0 | 0.00 | 0.00 | 0.00 | 58 | 1004.2 |
| 20260506190213 | 67 | 143 | 12.0 | 24.0 | 0.00 | 0.00 | 0.00 | 58 | 1004.2 |
| 20260506190013 | 68 | 141 | 12.0 | 24.0 | 0.00 | 0.00 | 0.00 | 58 | 1004.2 |
| 20260506185813 | 68 | 141 | 12.0 | 24.0 | 0.00 | 0.00 | 0.00 | 58 | 1004.2 |
| 20260506185413 | 68 | 141 | 11.0 | 20.0 | 0.00 | 0.00 | 0.00 | 58 | 1004.1 |
| 20260506184813 | 68 | 143 | 10.0 | 20.0 | 0.00 | 0.00 | 0.00 | 57 | 1004.0 |
| 20260506184613 | 68 | 144 | 10.0 | 20.0 | 0.00 | 0.00 | 0.00 | 57 | 1004.0 |
| 20260506184413 | 68 | 143 | 10.0 | 18.0 | 0.00 | 0.00 | 0.00 | 57 | 1003.9 |
| 20260506184213 | 68 | 143 | 10.0 | 18.0 | 0.00 | 0.00 | 0.00 | 57 | 1003.9 |
| 20260506184013 | 68 | 142 | 10.0 | 20.0 | 0.00 | 0.00 | 0.00 | 57 | 1003.9 |
| 20260506183813 | 68 | 142 | 10.0 | 20.0 | 0.00 | 0.00 | 0.00 | 57 | 1003.9 |
| 20260506183613 | 68 | 140 | 10.0 | 20.0 | 0.00 | 0.00 | 0.00 | 57 | 1003.9 |
| 20260506183413 | 68 | 138 | 10.0 | 20.0 | 0.00 | 0.00 | 0.00 | 56 | 1003.8 |
| 20260506183213 | 68 | 138 | 10.0 | 20.0 | 0.00 | 0.00 | 0.00 | 56 | 1003.6 |
| 20260506183013 | 68 | 137 | 11.0 | 19.0 | 0.00 | 0.00 | 0.00 | 56 | 1003.6 |
| 20260506182813 | 68 | 138 | 11.0 | 22.0 | 0.00 | 0.00 | 0.00 | 56 | 1003.6 |
| 20260506182613 | 69 | 138 | 11.0 | 23.0 | 0.00 | 0.00 | 0.00 | 56 | 1003.6 |
| 20260506182213 | 69 | 138 | 11.0 | 23.0 | 0.00 | 0.00 | 0.00 | 55 | 1003.6 |
| 20260506182013 | 69 | 139 | 11.0 | 23.0 | 0.00 | 0.00 | 0.00 | 55 | 1003.5 |
| 20260506181814 | 69 | 139 | 11.0 | 23.0 | 0.00 | 0.00 | 0.00 | 55 | 1003.4 |
| 20260506181613 | 69 | 139 | 11.0 | 23.0 | 0.00 | 0.00 | 0.00 | 55 | 1003.3 |
| 20260506181413 | 69 | 139 | 11.0 | 23.0 | 0.00 | 0.00 | 0.00 | 55 | 1003.4 |
| 20260506181013 | 69 | 137 | 11.0 | 22.0 | 0.00 | 0.00 | 0.00 | 54 | 1003.3 |
| 20260506180813 | 69 | 136 | 10.0 | 22.0 | 0.00 | 0.00 | 0.00 | 54 | 1003.3 |
| 20260506180613 | 69 | 135 | 10.0 | 22.0 | 0.00 | 0.00 | 0.00 | 54 | 1003.2 |
| 20260506180413 | 69 | 134 | 10.0 | 22.0 | 0.00 | 0.00 | 0.00 | 54 | 1003.3 |
| 20260506180213 | 69 | 132 | 10.0 | 22.0 | 0.00 | 0.00 | 0.00 | 54 | 1003.3 |
| 20260506180013 | 69 | 133 | 10.0 | 19.0 | 0.00 | 0.00 | 0.00 | 54 | 1003.4 |
| 20260506175813 | 70 | 134 | 10.0 | 19.0 | 0.00 | 0.00 | 0.00 | 54 | 1003.4 |
| 20260506175613 | 70 | 135 | 10.0 | 21.0 | 0.00 | 0.00 | 0.00 | 53 | 1003.4 |
| 20260506175413 | 70 | 135 | 10.0 | 21.0 | 0.00 | 0.00 | 0.00 | 53 | 1003.5 |
| 20260506175213 | 70 | 137 | 10.0 | 24.0 | 0.00 | 0.00 | 0.00 | 53 | 1003.4 |
| 20260506175013 | 70 | 136 | 10.0 | 24.0 | 0.00 | 0.00 | 0.00 | 53 | 1003.5 |
| 20260506174813 | 70 | 137 | 10.0 | 24.0 | 0.00 | 0.00 | 0.00 | 53 | 1003.5 |
| 20260506174613 | 70 | 136 | 10.0 | 24.0 | 0.00 | 0.00 | 0.00 | 53 | 1003.6 |
| 20260506174413 | 70 | 135 | 9.0 | 24.0 | 0.00 | 0.00 | 0.00 | 53 | 1003.5 |
| 20260506174213 | 70 | 135 | 9.0 | 20.0 | 0.00 | 0.00 | 0.00 | 53 | 1003.5 |
| 20260506173813 | 70 | 132 | 9.0 | 19.0 | 0.00 | 0.00 | 0.00 | 52 | 1003.6 |
| 20260506173613 | 70 | 136 | 9.0 | 21.0 | 0.00 | 0.00 | 0.00 | 53 | 1003.5 |
| 20260506173413 | 71 | 137 | 9.0 | 21.0 | 0.00 | 0.00 | 0.00 | 53 | 1003.4 |
| 20260506173213 | 71 | 138 | 9.0 | 21.0 | 0.00 | 0.00 | 0.00 | 53 | 1003.4 |
| 20260506173013 | 71 | 138 | 9.0 | 21.0 | 0.00 | 0.00 | 0.00 | 52 | 1003.4 |
| 20260506172813 | 71 | 136 | 8.0 | 21.0 | 0.00 | 0.00 | 0.00 | 52 | 1003.4 |
| 20260506172612 | 71 | 134 | 8.0 | 19.0 | 0.00 | 0.00 | 0.00 | 52 | 1003.4 |
| 20260506172413 | 71 | 134 | 8.0 | 19.0 | 0.00 | 0.00 | 0.00 | 52 | 1003.5 |
| 20260506172213 | 71 | 131 | 9.0 | 19.0 | 0.00 | 0.00 | 0.00 | 52 | 1003.5 |
| 20260506172013 | 71 | 136 | 9.0 | 22.0 | 0.00 | 0.00 | 0.00 | 52 | 1003.5 |
| 20260506171813 | 71 | 139 | 9.0 | 22.0 | 0.00 | 0.00 | 0.00 | 51 | 1003.5 |
| 20260506171613 | 71 | 139 | 10.0 | 22.0 | 0.00 | 0.00 | 0.00 | 51 | 1003.6 |
| 20260506171413 | 72 | 141 | 10.0 | 22.0 | 0.00 | 0.00 | 0.00 | 51 | 1003.6 |
| 20260506171213 | 72 | 141 | 10.0 | 22.0 | 0.00 | 0.00 | 0.00 | 51 | 1003.6 |
| 20260506171013 | 72 | 138 | 10.0 | 19.0 | 0.00 | 0.00 | 0.00 | 50 | 1003.6 |
| 20260506170813 | 72 | 138 | 10.0 | 23.0 | 0.00 | 0.00 | 0.00 | 50 | 1003.6 |
| 20260506170613 | 72 | 140 | 10.0 | 23.0 | 0.00 | 0.00 | 0.00 | 50 | 1003.6 |
| 20260506170213 | 72 | 141 | 11.0 | 23.0 | 0.00 | 0.00 | 0.00 | 50 | 1003.6 |
| 20260506170013 | 72 | 144 | 11.0 | 23.0 | 0.00 | 0.00 | 0.00 | 50 | 1003.6 |
| 20260506165813 | 72 | 144 | 11.0 | 20.0 | 0.00 | 0.00 | 0.00 | 50 | 1003.7 |
| 20260506165613 | 72 | 145 | 11.0 | 21.0 | 0.00 | 0.00 | 0.00 | 49 | 1003.6 |
| 20260506165413 | 72 | 145 | 11.0 | 21.0 | 0.00 | 0.00 | 0.00 | 50 | 1003.7 |
| 20260506165213 | 72 | 147 | 11.0 | 21.0 | 0.00 | 0.00 | 0.00 | 49 | 1003.7 |
| 20260506164813 | 72 | 145 | 11.0 | 27.0 | 0.00 | 0.00 | 0.00 | 49 | 1003.6 |
| 20260506164613 | 72 | 141 | 11.0 | 27.0 | 0.00 | 0.00 | 0.00 | 49 | 1003.7 |
| 20260506164413 | 73 | 139 | 10.0 | 27.0 | 0.00 | 0.00 | 0.00 | 49 | 1003.7 |
| 20260506164213 | 73 | 136 | 10.0 | 27.0 | 0.00 | 0.00 | 0.00 | 49 | 1003.8 |
| 20260506164013 | 73 | 135 | 10.0 | 27.0 | 0.00 | 0.00 | 0.00 | 49 | 1003.8 |
| 20260506163813 | 73 | 132 | 10.0 | 21.0 | 0.00 | 0.00 | 0.00 | 50 | 1003.7 |
| 20260506163613 | 73 | 131 | 9.0 | 21.0 | 0.00 | 0.00 | 0.00 | 50 | 1003.7 |
| 20260506163413 | 73 | 130 | 9.0 | 21.0 | 0.00 | 0.00 | 0.00 | 50 | 1003.8 |
| 20260506163213 | 73 | 130 | 9.0 | 21.0 | 0.00 | 0.00 | 0.00 | 50 | 1003.9 |
| 20260506163013 | 73 | 130 | 9.0 | 19.0 | 0.00 | 0.00 | 0.00 | 50 | 1003.9 |
| 20260506162813 | 73 | 130 | 10.0 | 19.0 | 0.00 | 0.00 | 0.00 | 50 | 1003.8 |
| 20260506162613 | 73 | 132 | 10.0 | 19.0 | 0.00 | 0.00 | 0.00 | 50 | 1003.9 |
| 20260506162413 | 73 | 133 | 11.0 | 21.0 | 0.00 | 0.00 | 0.00 | 50 | 1003.9 |
| 20260506161813 | 73 | 138 | 12.0 | 22.0 | 0.00 | 0.00 | 0.00 | 50 | 1004.0 |
| 20260506161613 | 73 | 138 | 12.0 | 23.0 | 0.00 | 0.00 | 0.00 | 50 | 1004.0 |
| 20260506161413 | 73 | 141 | 11.0 | 23.0 | 0.00 | 0.00 | 0.00 | 49 | 1004.1 |
| 20260506161012 | 73 | 145 | 11.0 | 23.0 | 0.00 | 0.00 | 0.00 | 49 | 1004.1 |
| 20260506160813 | 73 | 141 | 10.0 | 25.0 | 0.00 | 0.00 | 0.00 | 48 | 1004.1 |
| 20260506160613 | 73 | 142 | 10.0 | 25.0 | 0.00 | 0.00 | 0.00 | 48 | 1004.1 |
| 20260506160413 | 74 | 139 | 9.0 | 25.0 | 0.00 | 0.00 | 0.00 | 48 | 1004.0 |
| 20260506160213 | 74 | 136 | 9.0 | 25.0 | 0.00 | 0.00 | 0.00 | 48 | 1004.1 |
| 20260506160013 | 74 | 135 | 9.0 | 25.0 | 0.00 | 0.00 | 0.00 | 47 | 1004.1 |
| 20260506155813 | 74 | 136 | 10.0 | 16.0 | 0.00 | 0.00 | 0.00 | 47 | 1004.1 |
| 20260506155412 | 74 | 132 | 10.0 | 19.0 | 0.00 | 0.00 | 0.00 | 47 | 1004.2 |
| 20260506155213 | 74 | 135 | 10.0 | 19.0 | 0.00 | 0.00 | 0.00 | 46 | 1004.2 |
| 20260506155013 | 74 | 137 | 10.0 | 19.0 | 0.00 | 0.00 | 0.00 | 47 | 1004.2 |
| 20260506154813 | 74 | 139 | 10.0 | 19.0 | 0.00 | 0.00 | 0.00 | 46 | 1004.3 |
| 20260506154613 | 74 | 140 | 11.0 | 19.0 | 0.00 | 0.00 | 0.00 | 46 | 1004.3 |
| 20260506154212 | 74 | 135 | 11.0 | 22.0 | 0.00 | 0.00 | 0.00 | 46 | 1004.4 |
| 20260506154013 | 74 | 133 | 12.0 | 22.0 | 0.00 | 0.00 | 0.00 | 46 | 1004.3 |
| 20260506153613 | 74 | 130 | 12.0 | 22.0 | 0.00 | 0.00 | 0.00 | 46 | 1004.4 |
| 20260506153413 | 74 | 129 | 12.0 | 22.0 | 0.00 | 0.00 | 0.00 | 46 | 1004.4 |
| 20260506153213 | 74 | 127 | 12.0 | 22.0 | 0.00 | 0.00 | 0.00 | 46 | 1004.4 |
| 20260506152813 | 74 | 125 | 13.0 | 22.0 | 0.00 | 0.00 | 0.00 | 46 | 1004.4 |
| 20260506152613 | 74 | 122 | 13.0 | 22.0 | 0.00 | 0.00 | 0.00 | 46 | 1004.4 |
| 20260506152413 | 74 | 122 | 13.0 | 22.0 | 0.00 | 0.00 | 0.00 | 46 | 1004.5 |
| 20260506152213 | 74 | 121 | 12.0 | 22.0 | 0.00 | 0.00 | 0.00 | 46 | 1004.5 |
| 20260506151813 | 74 | 120 | 12.0 | 26.0 | 0.00 | 0.00 | 0.00 | 46 | 1004.6 |
| 20260506151413 | 74 | 124 | 12.0 | 26.0 | 0.00 | 0.00 | 0.00 | 45 | 1004.5 |
| 20260506151213 | 74 | 126 | 12.0 | 26.0 | 0.00 | 0.00 | 0.00 | 45 | 1004.5 |
| 20260506151012 | 74 | 127 | 11.0 | 26.0 | 0.00 | 0.00 | 0.00 | 46 | 1004.6 |
| 20260506150812 | 74 | 125 | 11.0 | 21.0 | 0.00 | 0.00 | 0.00 | 45 | 1004.6 |
| 20260506150413 | 74 | 126 | 12.0 | 22.0 | 0.00 | 0.00 | 0.00 | 46 | 1004.6 |
| 20260506150012 | 74 | 130 | 12.0 | 22.0 | 0.00 | 0.00 | 0.00 | 45 | 1004.7 |
| 20260506145812 | 74 | 128 | 12.0 | 22.0 | 0.00 | 0.00 | 0.00 | 45 | 1004.7 |
| 20260506145613 | 74 | 126 | 12.0 | 24.0 | 0.00 | 0.00 | 0.00 | 46 | 1004.7 |
| 20260506145413 | 74 | 125 | 13.0 | 24.0 | 0.00 | 0.00 | 0.00 | 46 | 1004.7 |
| 20260506145213 | 74 | 121 | 13.0 | 24.0 | 0.00 | 0.00 | 0.00 | 46 | 1004.7 |
| 20260506144812 | 74 | 121 | 12.0 | 24.0 | 0.00 | 0.00 | 0.00 | 46 | 1004.7 |
| 20260506144612 | 74 | 119 | 12.0 | 24.0 | 0.00 | 0.00 | 0.00 | 46 | 1004.7 |
| 20260506144414 | 74 | 118 | 12.0 | 24.0 | 0.00 | 0.00 | 0.00 | 45 | 1004.8 |
| 20260506143813 | 75 | 119 | 12.0 | 24.0 | 0.00 | 0.00 | 0.00 | 45 | 1004.8 |
| 20260506143613 | 75 | 119 | 12.0 | 23.0 | 0.00 | 0.00 | 0.00 | 46 | 1004.8 |
| 20260506143413 | 75 | 121 | 12.0 | 23.0 | 0.00 | 0.00 | 0.00 | 46 | 1004.8 |
| 20260506143213 | 74 | 121 | 11.0 | 23.0 | 0.00 | 0.00 | 0.00 | 46 | 1004.7 |
| 20260506143013 | 74 | 123 | 11.0 | 23.0 | 0.00 | 0.00 | 0.00 | 46 | 1004.8 |
| 20260506142813 | 74 | 123 | 10.0 | 23.0 | 0.00 | 0.00 | 0.00 | 46 | 1004.8 |
| 20260506142613 | 74 | 123 | 10.0 | 23.0 | 0.00 | 0.00 | 0.00 | 46 | 1004.8 |
| 20260506142413 | 74 | 126 | 9.0 | 20.0 | 0.00 | 0.00 | 0.00 | 46 | 1004.8 |
| 20260506142212 | 74 | 127 | 10.0 | 18.0 | 0.00 | 0.00 | 0.00 | 47 | 1004.9 |
| 20260506142013 | 74 | 127 | 10.0 | 18.0 | 0.00 | 0.00 | 0.00 | 46 | 1004.9 |
| 20260506141813 | 74 | 126 | 11.0 | 16.0 | 0.00 | 0.00 | 0.00 | 46 | 1004.9 |
| 20260506141012 | 74 | 125 | 12.0 | 22.0 | 0.00 | 0.00 | 0.00 | 45 | 1005.1 |
| 20260506140812 | 75 | 125 | 12.0 | 22.0 | 0.00 | 0.00 | 0.00 | 44 | 1005.2 |
| 20260506140613 | 75 | 124 | 12.0 | 22.0 | 0.00 | 0.00 | 0.00 | 45 | 1005.1 |
| 20260506140413 | 75 | 126 | 12.0 | 23.0 | 0.00 | 0.00 | 0.00 | 45 | 1005.1 |
| 20260506140213 | 75 | 125 | 12.0 | 23.0 | 0.00 | 0.00 | 0.00 | 45 | 1005.2 |
| 20260506140013 | 75 | 124 | 12.0 | 23.0 | 0.00 | 0.00 | 0.00 | 45 | 1005.1 |
| 20260506135812 | 75 | 125 | 12.0 | 23.0 | 0.00 | 0.00 | 0.00 | 45 | 1005.1 |
| 20260506135612 | 75 | 126 | 12.0 | 23.0 | 0.00 | 0.00 | 0.00 | 45 | 1005.1 |
| 20260506135412 | 75 | 124 | 12.0 | 23.0 | 0.00 | 0.00 | 0.00 | 47 | 1005.0 |
| 20260506135013 | 75 | 122 | 12.0 | 24.0 | 0.00 | 0.00 | 0.00 | 48 | 1005.1 |
| 20260506134813 | 75 | 122 | 12.0 | 24.0 | 0.00 | 0.00 | 0.00 | 48 | 1005.2 |
| 20260506134612 | 75 | 123 | 12.0 | 24.0 | 0.00 | 0.00 | 0.00 | 49 | 1005.2 |
| 20260506134412 | 74 | 123 | 12.0 | 24.0 | 0.00 | 0.00 | 0.00 | 49 | 1005.2 |
| 20260506134212 | 74 | 122 | 12.0 | 24.0 | 0.00 | 0.00 | 0.00 | 49 | 1005.3 |
| 20260506134012 | 74 | 122 | 12.0 | 22.0 | 0.00 | 0.00 | 0.00 | 49 | 1005.4 |
| 20260506133813 | 74 | 125 | 11.0 | 22.0 | 0.00 | 0.00 | 0.00 | 49 | 1005.4 |
| 20260506133613 | 74 | 127 | 11.0 | 22.0 | 0.00 | 0.00 | 0.00 | 49 | 1005.5 |
| 20260506133413 | 75 | 128 | 12.0 | 20.0 | 0.00 | 0.00 | 0.00 | 48 | 1005.4 |
| 20260506133213 | 75 | 128 | 12.0 | 21.0 | 0.00 | 0.00 | 0.00 | 48 | 1005.5 |
| 20260506133012 | 75 | 129 | 12.0 | 22.0 | 0.00 | 0.00 | 0.00 | 49 | 1005.5 |
| 20260506132813 | 75 | 125 | 12.0 | 22.0 | 0.00 | 0.00 | 0.00 | 49 | 1005.5 |
| 20260506132613 | 75 | 123 | 12.0 | 23.0 | 0.00 | 0.00 | 0.00 | 49 | 1005.5 |
| 20260506132413 | 75 | 121 | 11.0 | 23.0 | 0.00 | 0.00 | 0.00 | 50 | 1005.5 |
| 20260506132213 | 75 | 124 | 10.0 | 23.0 | 0.00 | 0.00 | 0.00 | 50 | 1005.5 |
| 20260506131813 | 74 | 131 | 9.0 | 23.0 | 0.00 | 0.00 | 0.00 | 50 | 1005.6 |
| 20260506131412 | 74 | 133 | 9.0 | 17.0 | 0.00 | 0.00 | 0.00 | 51 | 1005.7 |
| 20260506131212 | 74 | 132 | 9.0 | 19.0 | 0.00 | 0.00 | 0.00 | 51 | 1005.7 |
| 20260506131012 | 74 | 129 | 9.0 | 19.0 | 0.00 | 0.00 | 0.00 | 51 | 1005.8 |
| 20260506130812 | 74 | 127 | 10.0 | 19.0 | 0.00 | 0.00 | 0.00 | 53 | 1005.9 |
| 20260506130613 | 73 | 123 | 10.0 | 19.0 | 0.00 | 0.00 | 0.00 | 52 | 1006.0 |
| 20260506130413 | 73 | 121 | 10.0 | 19.0 | 0.00 | 0.00 | 0.00 | 51 | 1006.1 |
| 20260506130213 | 73 | 117 | 11.0 | 17.0 | 0.00 | 0.00 | 0.00 | 52 | 1006.0 |
| 20260506130013 | 73 | 113 | 11.0 | 23.0 | 0.00 | 0.00 | 0.00 | 53 | 1006.0 |
| 20260506125813 | 73 | 114 | 11.0 | 23.0 | 0.00 | 0.00 | 0.00 | 53 | 1005.9 |
| 20260506125613 | 73 | 119 | 11.0 | 23.0 | 0.00 | 0.00 | 0.00 | 53 | 1005.9 |
| 20260506125413 | 73 | 125 | 11.0 | 23.0 | 0.00 | 0.00 | 0.00 | 52 | 1006.0 |
| 20260506125213 | 73 | 126 | 11.0 | 23.0 | 0.00 | 0.00 | 0.00 | 52 | 1006.0 |
| 20260506125012 | 74 | 127 | 10.0 | 20.0 | 0.00 | 0.00 | 0.00 | 52 | 1006.0 |
| 20260506124812 | 74 | 124 | 10.0 | 21.0 | 0.00 | 0.00 | 0.00 | 52 | 1006.0 |
| 20260506124612 | 74 | 124 | 10.0 | 21.0 | 0.00 | 0.00 | 0.00 | 51 | 1006.1 |
| 20260506124412 | 74 | 119 | 10.0 | 21.0 | 0.00 | 0.00 | 0.00 | 51 | 1006.1 |
| 20260506124213 | 74 | 117 | 11.0 | 21.0 | 0.00 | 0.00 | 0.00 | 51 | 1006.1 |
| 20260506124013 | 74 | 118 | 11.0 | 21.0 | 0.00 | 0.00 | 0.00 | 50 | 1006.0 |
| 20260506123812 | 74 | 120 | 11.0 | 20.0 | 0.00 | 0.00 | 0.00 | 51 | 1006.1 |
| 20260506123613 | 74 | 117 | 11.0 | 21.0 | 0.00 | 0.00 | 0.00 | 51 | 1006.1 |
| 20260506123412 | 74 | 118 | 11.0 | 21.0 | 0.00 | 0.00 | 0.00 | 51 | 1006.1 |
| 20260506123212 | 74 | 122 | 11.0 | 21.0 | 0.00 | 0.00 | 0.00 | 51 | 1006.1 |
| 20260506123013 | 75 | 128 | 11.0 | 21.0 | 0.00 | 0.00 | 0.00 | 50 | 1006.0 |
| 20260506122813 | 75 | 130 | 11.0 | 21.0 | 0.00 | 0.00 | 0.00 | 50 | 1006.0 |
| 20260506122613 | 76 | 135 | 12.0 | 20.0 | 0.00 | 0.00 | 0.00 | 50 | 1006.2 |
| 20260506122413 | 75 | 133 | 12.0 | 20.0 | 0.00 | 0.00 | 0.00 | 50 | 1006.0 |
| 20260506122213 | 75 | 129 | 12.0 | 23.0 | 0.00 | 0.00 | 0.00 | 49 | 1006.2 |
| 20260506122013 | 75 | 124 | 12.0 | 23.0 | 0.00 | 0.00 | 0.00 | 51 | 1006.3 |
| 20260506121613 | 74 | 117 | 11.0 | 23.0 | 0.00 | 0.00 | 0.00 | 51 | 1006.3 |
| 20260506121413 | 74 | 119 | 11.0 | 23.0 | 0.00 | 0.00 | 0.00 | 52 | 1006.4 |
| 20260506121213 | 75 | 119 | 11.0 | 22.0 | 0.00 | 0.00 | 0.00 | 52 | 1006.3 |
| 20260506120813 | 75 | 127 | 11.0 | 20.0 | 0.00 | 0.00 | 0.00 | 50 | 1006.4 |
| 20260506120613 | 75 | 127 | 11.0 | 20.0 | 0.00 | 0.00 | 0.00 | 51 | 1006.3 |
| 20260506120413 | 75 | 123 | 11.0 | 20.0 | 0.00 | 0.00 | 0.00 | 51 | 1006.3 |
| 20260506120212 | 75 | 122 | 12.0 | 20.0 | 0.00 | 0.00 | 0.00 | 50 | 1006.4 |
| 20260506115213 | 75 | 123 | 12.0 | 22.0 | 0.00 | 0.00 | 0.00 | 51 | 1006.4 |
| 20260506115013 | 74 | 123 | 12.0 | 22.0 | 0.00 | 0.00 | 0.00 | 51 | 1006.3 |
| 20260506114813 | 74 | 124 | 12.0 | 22.0 | 0.00 | 0.00 | 0.00 | 50 | 1006.3 |
| 20260506114613 | 74 | 121 | 12.0 | 22.0 | 0.00 | 0.00 | 0.00 | 50 | 1006.4 |
| 20260506114413 | 74 | 119 | 12.0 | 20.0 | 0.00 | 0.00 | 0.00 | 51 | 1006.3 |
| 20260506114212 | 74 | 119 | 11.0 | 20.0 | 0.00 | 0.00 | 0.00 | 52 | 1006.3 |
| 20260506114012 | 74 | 119 | 11.0 | 20.0 | 0.00 | 0.00 | 0.00 | 52 | 1006.3 |
| 20260506113413 | 74 | 119 | 11.0 | 18.0 | 0.00 | 0.00 | 0.00 | 52 | 1006.3 |
| 20260506113212 | 74 | 119 | 11.0 | 20.0 | 0.00 | 0.00 | 0.00 | 53 | 1006.4 |
| 20260506113012 | 74 | 120 | 11.0 | 20.0 | 0.00 | 0.00 | 0.00 | 52 | 1006.4 |
| 20260506112812 | 74 | 123 | 11.0 | 20.0 | 0.00 | 0.00 | 0.00 | 52 | 1006.4 |
| 20260506112613 | 74 | 125 | 11.0 | 20.0 | 0.00 | 0.00 | 0.00 | 53 | 1006.5 |
| 20260506112013 | 74 | 125 | 12.0 | 22.0 | 0.00 | 0.00 | 0.00 | 53 | 1006.5 |
| 20260506111813 | 74 | 126 | 12.0 | 22.0 | 0.00 | 0.00 | 0.00 | 53 | 1006.6 |
| 20260506111612 | 74 | 128 | 12.0 | 22.0 | 0.00 | 0.00 | 0.00 | 53 | 1006.6 |
| 20260506111412 | 74 | 134 | 12.0 | 23.0 | 0.00 | 0.00 | 0.00 | 52 | 1006.7 |
| 20260506111212 | 74 | 139 | 12.0 | 23.0 | 0.00 | 0.00 | 0.00 | 52 | 1006.6 |
| 20260506111012 | 74 | 141 | 11.0 | 23.0 | 0.00 | 0.00 | 0.00 | 52 | 1006.6 |
| 20260506110813 | 74 | 140 | 11.0 | 23.0 | 0.00 | 0.00 | 0.00 | 53 | 1006.6 |
| 20260506110613 | 74 | 139 | 11.0 | 23.0 | 0.00 | 0.00 | 0.00 | 53 | 1006.7 |
| 20260506110413 | 74 | 133 | 11.0 | 21.0 | 0.00 | 0.00 | 0.00 | 52 | 1006.6 |
| 20260506110213 | 73 | 130 | 10.0 | 21.0 | 0.00 | 0.00 | 0.00 | 52 | 1006.7 |
| 20260506110013 | 73 | 128 | 10.0 | 21.0 | 0.00 | 0.00 | 0.00 | 53 | 1006.8 |
| 20260506105813 | 73 | 130 | 10.0 | 21.0 | 0.00 | 0.00 | 0.00 | 52 | 1006.8 |
| 20260506105613 | 73 | 127 | 10.0 | 17.0 | 0.00 | 0.00 | 0.00 | 52 | 1006.8 |
| 20260506105213 | 74 | 126 | 10.0 | 22.0 | 0.00 | 0.00 | 0.00 | 52 | 1006.8 |
| 20260506105013 | 74 | 126 | 10.0 | 22.0 | 0.00 | 0.00 | 0.00 | 53 | 1006.7 |
| 20260506104813 | 74 | 126 | 10.0 | 22.0 | 0.00 | 0.00 | 0.00 | 53 | 1006.8 |
| 20260506104413 | 74 | 126 | 10.0 | 19.0 | 0.00 | 0.00 | 0.00 | 52 | 1006.8 |
| 20260506104212 | 74 | 127 | 10.0 | 19.0 | 0.00 | 0.00 | 0.00 | 52 | 1006.8 |
| 20260506104013 | 74 | 126 | 9.0 | 19.0 | 0.00 | 0.00 | 0.00 | 53 | 1006.8 |
| 20260506103813 | 74 | 124 | 9.0 | 19.0 | 0.00 | 0.00 | 0.00 | 52 | 1006.8 |
| 20260506103613 | 73 | 121 | 9.0 | 19.0 | 0.00 | 0.00 | 0.00 | 53 | 1006.8 |
| 20260506103413 | 73 | 121 | 9.0 | 21.0 | 0.00 | 0.00 | 0.00 | 52 | 1006.9 |
| 20260506103213 | 73 | 119 | 9.0 | 21.0 | 0.00 | 0.00 | 0.00 | 52 | 1006.8 |
| 20260506103012 | 73 | 122 | 9.0 | 21.0 | 0.00 | 0.00 | 0.00 | 52 | 1006.8 |
| 20260506102813 | 73 | 120 | 9.0 | 21.0 | 0.00 | 0.00 | 0.00 | 51 | 1006.9 |
| 20260506102614 | 74 | 118 | 8.0 | 21.0 | 0.00 | 0.00 | 0.00 | 50 | 1006.9 |
| 20260506102413 | 74 | 119 | 8.0 | 17.0 | 0.00 | 0.00 | 0.00 | 50 | 1007.0 |
| 20260506102213 | 74 | 125 | 8.0 | 17.0 | 0.00 | 0.00 | 0.00 | 52 | 1007.0 |
| 20260506102013 | 73 | 124 | 8.0 | 14.0 | 0.00 | 0.00 | 0.00 | 51 | 1006.9 |
| 20260506101813 | 73 | 130 | 8.0 | 14.0 | 0.00 | 0.00 | 0.00 | 52 | 1007.0 |
| 20260506101612 | 73 | 137 | 8.0 | 15.0 | 0.00 | 0.00 | 0.00 | 51 | 1007.0 |
| 20260506101413 | 73 | 137 | 8.0 | 15.0 | 0.00 | 0.00 | 0.00 | 52 | 1007.0 |
| 20260506101213 | 73 | 129 | 8.0 | 16.0 | 0.00 | 0.00 | 0.00 | 53 | 1007.1 |
| 20260506101012 | 73 | 129 | 8.0 | 16.0 | 0.00 | 0.00 | 0.00 | 53 | 1007.1 |
| 20260506100813 | 73 | 126 | 8.0 | 16.0 | 0.00 | 0.00 | 0.00 | 55 | 1007.1 |
| 20260506100613 | 73 | 125 | 8.0 | 16.0 | 0.00 | 0.00 | 0.00 | 56 | 1007.1 |
| 20260506100414 | 72 | 121 | 8.0 | 16.0 | 0.00 | 0.00 | 0.00 | 56 | 1007.2 |
| 20260506100212 | 72 | 123 | 8.0 | 15.0 | 0.00 | 0.00 | 0.00 | 56 | 1007.2 |
| 20260506100013 | 73 | 123 | 7.0 | 15.0 | 0.00 | 0.00 | 0.00 | 55 | 1007.1 |
| 20260506095813 | 73 | 123 | 7.0 | 15.0 | 0.00 | 0.00 | 0.00 | 55 | 1007.1 |
| 20260506095413 | 73 | 124 | 7.0 | 15.0 | 0.00 | 0.00 | 0.00 | 54 | 1007.1 |
| 20260506095213 | 72 | 124 | 7.0 | 15.0 | 0.00 | 0.00 | 0.00 | 54 | 1007.2 |
| 20260506095013 | 73 | 123 | 6.0 | 15.0 | 0.00 | 0.00 | 0.00 | 53 | 1007.2 |
| 20260506094813 | 73 | 119 | 6.0 | 14.0 | 0.00 | 0.00 | 0.00 | 52 | 1007.2 |
| 20260506094613 | 73 | 125 | 6.0 | 14.0 | 0.00 | 0.00 | 0.00 | 50 | 1007.1 |
| 20260506094412 | 73 | 131 | 6.0 | 14.0 | 0.00 | 0.00 | 0.00 | 51 | 1007.2 |
| 20260506094013 | 73 | 135 | 6.0 | 12.0 | 0.00 | 0.00 | 0.00 | 51 | 1007.1 |
| 20260506093814 | 73 | 139 | 6.0 | 12.0 | 0.00 | 0.00 | 0.00 | 53 | 1007.1 |
| 20260506093613 | 72 | 133 | 6.0 | 12.0 | 0.00 | 0.00 | 0.00 | 52 | 1007.1 |
| 20260506093413 | 72 | 126 | 6.0 | 12.0 | 0.00 | 0.00 | 0.00 | 55 | 1007.2 |
| 20260506093212 | 71 | 126 | 5.0 | 11.0 | 0.00 | 0.00 | 0.00 | 55 | 1007.2 |
| 20260506093013 | 72 | 135 | 5.0 | 11.0 | 0.00 | 0.00 | 0.00 | 55 | 1007.2 |
| 20260506092612 | 72 | 148 | 5.0 | 11.0 | 0.00 | 0.00 | 0.00 | 57 | 1007.2 |
| 20260506092413 | 72 | 158 | 5.0 | 11.0 | 0.00 | 0.00 | 0.00 | 54 | 1007.3 |
| 20260506092012 | 72 | 153 | 5.0 | 11.0 | 0.00 | 0.00 | 0.00 | 54 | 1007.3 |
| 20260506091813 | 71 | 161 | 6.0 | 12.0 | 0.00 | 0.00 | 0.00 | 56 | 1007.3 |
| 20260506091613 | 71 | 163 | 6.0 | 12.0 | 0.00 | 0.00 | 0.00 | 55 | 1007.3 |
| 20260506091412 | 72 | 165 | 5.0 | 12.0 | 0.00 | 0.00 | 0.00 | 55 | 1007.4 |
| 20260506091213 | 72 | 168 | 5.0 | 12.0 | 0.00 | 0.00 | 0.00 | 57 | 1007.3 |
| 20260506091013 | 72 | 174 | 5.0 | 12.0 | 0.00 | 0.00 | 0.00 | 57 | 1007.3 |
| 20260506090613 | 72 | 173 | 5.0 | 11.0 | 0.00 | 0.00 | 0.00 | 59 | 1007.4 |
| 20260506090414 | 71 | 158 | 5.0 | 11.0 | 0.00 | 0.00 | 0.00 | 58 | 1007.4 |
| 20260506090214 | 71 | 155 | 6.0 | 11.0 | 0.00 | 0.00 | 0.00 | 59 | 1007.4 |
| 20260506090013 | 70 | 152 | 6.0 | 10.0 | 0.00 | 0.00 | 0.00 | 61 | 1007.4 |
| 20260506085813 | 70 | 148 | 6.0 | 11.0 | 0.00 | 0.00 | 0.00 | 58 | 1007.3 |
| 20260506085413 | 70 | 158 | 5.0 | 12.0 | 0.00 | 0.00 | 0.00 | 60 | 1007.5 |
| 20260506085213 | 70 | 158 | 5.0 | 12.0 | 0.00 | 0.00 | 0.00 | 60 | 1007.4 |
| 20260506085013 | 70 | 158 | 5.0 | 12.0 | 0.00 | 0.00 | 0.00 | 60 | 1007.4 |
| 20260506084413 | 70 | 170 | 6.0 | 11.0 | 0.00 | 0.00 | 0.00 | 60 | 1007.4 |
| 20260506084213 | 70 | 174 | 6.0 | 11.0 | 0.00 | 0.00 | 0.00 | 62 | 1007.5 |
| 20260506084012 | 69 | 173 | 6.0 | 11.0 | 0.00 | 0.00 | 0.00 | 61 | 1007.5 |
| 20260506083813 | 69 | 169 | 6.0 | 12.0 | 0.00 | 0.00 | 0.00 | 60 | 1007.5 |
| 20260506083613 | 69 | 167 | 6.0 | 12.0 | 0.00 | 0.00 | 0.00 | 61 | 1007.5 |
| 20260506082813 | 69 | 160 | 6.0 | 12.0 | 0.00 | 0.00 | 0.00 | 61 | 1007.5 |
| 20260506082413 | 69 | 162 | 7.0 | 13.0 | 0.00 | 0.00 | 0.00 | 63 | 1007.5 |
| 20260506082216 | 69 | 154 | 7.0 | 13.0 | 0.00 | 0.00 | 0.00 | 63 | 1007.5 |
| 20260506082013 | 68 | 150 | 7.0 | 13.0 | 0.00 | 0.00 | 0.00 | 63 | 1007.5 |
| 20260506081813 | 68 | 159 | 7.0 | 13.0 | 0.00 | 0.00 | 0.00 | 63 | 1007.5 |
| 20260506081613 | 68 | 158 | 7.0 | 13.0 | 0.00 | 0.00 | 0.00 | 63 | 1007.4 |
| 20260506081413 | 68 | 151 | 6.0 | 12.0 | 0.00 | 0.00 | 0.00 | 63 | 1007.4 |
| 20260506080813 | 68 | 163 | 5.0 | 13.0 | 0.00 | 0.00 | 0.00 | 62 | 1007.4 |
| 20260506080613 | 68 | 163 | 5.0 | 13.0 | 0.00 | 0.00 | 0.00 | 62 | 1007.4 |
| 20260506080412 | 69 | 172 | 5.0 | 13.0 | 0.00 | 0.00 | 0.00 | 62 | 1007.4 |
| 20260506080213 | 69 | 172 | 5.0 | 13.0 | 0.00 | 0.00 | 0.00 | 64 | 1007.4 |
| 20260506073412 | 66 | 154 | 6.0 | 11.0 | 0.00 | 0.00 | 0.00 | 68 | 1007.5 |
| 20260506073215 | 65 | 155 | 6.0 | 13.0 | 0.00 | 0.00 | 0.00 | 68 | 1007.6 |
| 20260506073013 | 65 | 155 | 6.0 | 13.0 | 0.00 | 0.00 | 0.00 | 68 | 1007.5 |
| 20260506072813 | 65 | 158 | 6.0 | 13.0 | 0.00 | 0.00 | 0.00 | 67 | 1007.5 |
| 20260506072413 | 66 | 157 | 6.0 | 13.0 | 0.00 | 0.00 | 0.00 | 66 | 1007.7 |
| 20260506072212 | 66 | 157 | 6.0 | 10.0 | 0.00 | 0.00 | 0.00 | 68 | 1007.7 |
| 20260506072014 | 65 | 156 | 6.0 | 10.0 | 0.00 | 0.00 | 0.00 | 68 | 1007.7 |
| 20260506071813 | 65 | 162 | 7.0 | 11.0 | 0.00 | 0.00 | 0.00 | 68 | 1007.7 |
| 20260506071612 | 65 | 168 | 7.0 | 12.0 | 0.00 | 0.00 | 0.00 | 68 | 1007.7 |
| 20260506071413 | 65 | 167 | 7.0 | 12.0 | 0.00 | 0.00 | 0.00 | 68 | 1007.7 |
| 20260506071213 | 65 | 165 | 7.0 | 12.0 | 0.00 | 0.00 | 0.00 | 68 | 1007.8 |
| 20260506070813 | 65 | 153 | 7.0 | 12.0 | 0.00 | 0.00 | 0.00 | 68 | 1007.7 |
| 20260506070613 | 65 | 151 | 7.0 | 12.0 | 0.00 | 0.00 | 0.00 | 69 | 1007.8 |
| 20260506070413 | 64 | 153 | 7.0 | 12.0 | 0.00 | 0.00 | 0.00 | 68 | 1007.7 |
| 20260506070213 | 64 | 156 | 7.0 | 14.0 | 0.00 | 0.00 | 0.00 | 68 | 1007.7 |
| 20260506062212 | 63 | 165 | 6.0 | 12.0 | 0.00 | 0.00 | 0.00 | 69 | 1007.6 |
| 20260506061613 | 63 | 160 | 7.0 | 12.0 | 0.00 | 0.00 | 0.00 | 70 | 1007.5 |
| 20260506061412 | 63 | 158 | 7.0 | 12.0 | 0.00 | 0.00 | 0.00 | 70 | 1007.5 |
| 20260506061213 | 63 | 157 | 7.0 | 12.0 | 0.00 | 0.00 | 0.00 | 69 | 1007.5 |
| 20260506061013 | 63 | 157 | 7.0 | 12.0 | 0.00 | 0.00 | 0.00 | 69 | 1007.5 |
| 20260506060813 | 63 | 161 | 7.0 | 12.0 | 0.00 | 0.00 | 0.00 | 68 | 1007.5 |
| 20260506060412 | 64 | 165 | 7.0 | 12.0 | 0.00 | 0.00 | 0.00 | 69 | 1007.5 |
| 20260506060212 | 64 | 166 | 7.0 | 16.0 | 0.00 | 0.00 | 0.00 | 69 | 1007.5 |
| 20260506051413 | 60 | 177 | 4.0 | 7.0 | 0.00 | 0.00 | 0.00 | 73 | 1007.3 |
| 20260506051012 | 60 | 161 | 4.0 | 8.0 | 0.00 | 0.00 | 0.00 | 73 | 1007.2 |
| 20260506050813 | 60 | 155 | 5.0 | 9.0 | 0.00 | 0.00 | 0.00 | 72 | 1007.1 |
| 20260506050612 | 60 | 149 | 5.0 | 9.0 | 0.00 | 0.00 | 0.00 | 72 | 1007.1 |
| 20260506050413 | 60 | 147 | 5.0 | 12.0 | 0.00 | 0.00 | 0.00 | 72 | 1007.1 |
| 20260506050212 | 60 | 148 | 5.0 | 12.0 | 0.00 | 0.00 | 0.00 | 72 | 1007.1 |
| 20260506045013 | 59 | 140 | 6.0 | 10.0 | 0.00 | 0.00 | 0.00 | 74 | 1006.9 |
| 20260506044812 | 59 | 142 | 6.0 | 11.0 | 0.00 | 0.00 | 0.00 | 74 | 1006.9 |
| 20260506044613 | 59 | 143 | 6.0 | 11.0 | 0.00 | 0.00 | 0.00 | 74 | 1006.8 |
| 20260506044413 | 59 | 143 | 6.0 | 11.0 | 0.00 | 0.00 | 0.00 | 74 | 1006.9 |
| 20260506044212 | 58 | 145 | 5.0 | 11.0 | 0.00 | 0.00 | 0.00 | 74 | 1006.8 |
| 20260506044013 | 58 | 146 | 5.0 | 11.0 | 0.00 | 0.00 | 0.00 | 75 | 1006.8 |
| 20260506043612 | 58 | 148 | 5.0 | 10.0 | 0.00 | 0.00 | 0.00 | 75 | 1006.8 |
| 20260506043413 | 58 | 150 | 6.0 | 10.0 | 0.00 | 0.00 | 0.00 | 75 | 1006.8 |
| 20260506043213 | 58 | 151 | 6.0 | 9.0 | 0.00 | 0.00 | 0.00 | 75 | 1006.8 |
| 20260506043012 | 58 | 155 | 6.0 | 10.0 | 0.00 | 0.00 | 0.00 | 75 | 1006.8 |
| 20260506042612 | 58 | 148 | 6.0 | 12.0 | 0.00 | 0.00 | 0.00 | 75 | 1006.7 |
| 20260506042413 | 58 | 145 | 6.0 | 12.0 | 0.00 | 0.00 | 0.00 | 74 | 1006.7 |
| 20260506041812 | 58 | 137 | 6.0 | 13.0 | 0.00 | 0.00 | 0.00 | 74 | 1006.6 |
| 20260506041613 | 58 | 143 | 6.0 | 13.0 | 0.00 | 0.00 | 0.00 | 74 | 1006.6 |
| 20260506041212 | 58 | 147 | 6.0 | 11.0 | 0.00 | 0.00 | 0.00 | 74 | 1006.6 |
| 20260506040812 | 58 | 153 | 6.0 | 11.0 | 0.00 | 0.00 | 0.00 | 74 | 1006.6 |
| 20260506040412 | 58 | 150 | 6.0 | 11.0 | 0.00 | 0.00 | 0.00 | 74 | 1006.5 |
| 20260506040212 | 58 | 151 | 6.0 | 11.0 | 0.00 | 0.00 | 0.00 | 74 | 1006.6 |
| 20260506035812 | 58 | 152 | 5.0 | 10.0 | 0.00 | 0.00 | 0.00 | 74 | 1006.6 |
| 20260506035612 | 58 | 152 | 5.0 | 10.0 | 0.00 | 0.00 | 0.00 | 74 | 1006.5 |
| 20260506035412 | 58 | 149 | 4.0 | 10.0 | 0.00 | 0.00 | 0.00 | 74 | 1006.5 |
| 20260506035212 | 58 | 145 | 4.0 | 10.0 | 0.00 | 0.00 | 0.00 | 73 | 1006.5 |
| 20260506035012 | 58 | 141 | 4.0 | 10.0 | 0.00 | 0.00 | 0.00 | 73 | 1006.4 |
| 20260506034812 | 58 | 137 | 5.0 | 9.0 | 0.00 | 0.00 | 0.00 | 73 | 1006.4 |
| 20260506034612 | 58 | 135 | 5.0 | 8.0 | 0.00 | 0.00 | 0.00 | 74 | 1006.3 |
| 20260506034412 | 58 | 139 | 5.0 | 10.0 | 0.00 | 0.00 | 0.00 | 74 | 1006.3 |
| 20260506034213 | 58 | 142 | 5.0 | 10.0 | 0.00 | 0.00 | 0.00 | 74 | 1006.3 |
| 20260506034013 | 58 | 143 | 5.0 | 10.0 | 0.00 | 0.00 | 0.00 | 73 | 1006.3 |
| 20260506033812 | 58 | 144 | 6.0 | 10.0 | 0.00 | 0.00 | 0.00 | 74 | 1006.2 |
| 20260506033612 | 58 | 143 | 6.0 | 11.0 | 0.00 | 0.00 | 0.00 | 74 | 1006.2 |
| 20260506033412 | 58 | 142 | 6.0 | 11.0 | 0.00 | 0.00 | 0.00 | 73 | 1006.3 |
| 20260506033212 | 58 | 140 | 6.0 | 11.0 | 0.00 | 0.00 | 0.00 | 73 | 1006.3 |
| 20260506032812 | 58 | 142 | 5.0 | 12.0 | 0.00 | 0.00 | 0.00 | 73 | 1006.3 |
| 20260506032612 | 58 | 147 | 5.0 | 12.0 | 0.00 | 0.00 | 0.00 | 73 | 1006.2 |
| 20260506032212 | 58 | 158 | 5.0 | 12.0 | 0.00 | 0.00 | 0.00 | 74 | 1006.2 |
| 20260506032013 | 58 | 168 | 5.0 | 11.0 | 0.00 | 0.00 | 0.00 | 73 | 1006.2 |
| 20260506031813 | 58 | 168 | 5.0 | 11.0 | 0.00 | 0.00 | 0.00 | 73 | 1006.2 |
| 20260506031612 | 58 | 165 | 5.0 | 11.0 | 0.00 | 0.00 | 0.00 | 73 | 1006.2 |
| 20260506031412 | 58 | 166 | 6.0 | 11.0 | 0.00 | 0.00 | 0.00 | 73 | 1006.3 |
| 20260506031212 | 58 | 164 | 6.0 | 11.0 | 0.00 | 0.00 | 0.00 | 73 | 1006.3 |
| 20260506031012 | 58 | 157 | 7.0 | 11.0 | 0.00 | 0.00 | 0.00 | 72 | 1006.2 |
| 20260506030412 | 59 | 148 | 8.0 | 16.0 | 0.00 | 0.00 | 0.00 | 72 | 1006.2 |
| 20260506030012 | 59 | 146 | 8.0 | 16.0 | 0.00 | 0.00 | 0.00 | 72 | 1006.1 |
| 20260506025813 | 59 | 147 | 8.0 | 16.0 | 0.00 | 0.00 | 0.00 | 72 | 1006.1 |
| 20260506025612 | 59 | 148 | 8.0 | 16.0 | 0.00 | 0.00 | 0.00 | 72 | 1006.1 |
| 20260506025412 | 59 | 151 | 8.0 | 15.0 | 0.00 | 0.00 | 0.00 | 72 | 1006.1 |
| 20260506025012 | 59 | 155 | 9.0 | 13.0 | 0.00 | 0.00 | 0.00 | 71 | 1006.1 |
| 20260506024812 | 59 | 155 | 9.0 | 15.0 | 0.00 | 0.00 | 0.00 | 71 | 1006.1 |
| 20260506024612 | 59 | 154 | 9.0 | 17.0 | 0.00 | 0.00 | 0.00 | 71 | 1006.0 |
| 20260506024412 | 59 | 155 | 9.0 | 17.0 | 0.00 | 0.00 | 0.00 | 71 | 1006.0 |
| 20260506024212 | 59 | 152 | 9.0 | 17.0 | 0.00 | 0.00 | 0.00 | 71 | 1006.0 |
| 20260506024012 | 59 | 151 | 9.0 | 17.0 | 0.00 | 0.00 | 0.00 | 70 | 1006.0 |
| 20260506023612 | 59 | 150 | 9.0 | 17.0 | 0.00 | 0.00 | 0.00 | 70 | 1006.0 |
| 20260506023412 | 59 | 147 | 9.0 | 17.0 | 0.00 | 0.00 | 0.00 | 70 | 1005.9 |
| 20260506023212 | 59 | 146 | 8.0 | 15.0 | 0.00 | 0.00 | 0.00 | 70 | 1005.9 |
| 20260506023012 | 59 | 147 | 8.0 | 15.0 | 0.00 | 0.00 | 0.00 | 70 | 1005.9 |
| 20260506022613 | 59 | 148 | 8.0 | 15.0 | 0.00 | 0.00 | 0.00 | 70 | 1005.8 |
| 20260506022412 | 59 | 147 | 8.0 | 15.0 | 0.00 | 0.00 | 0.00 | 70 | 1005.8 |
| 20260506022212 | 59 | 148 | 8.0 | 16.0 | 0.00 | 0.00 | 0.00 | 71 | 1005.8 |
| 20260506022012 | 59 | 150 | 8.0 | 16.0 | 0.00 | 0.00 | 0.00 | 71 | 1005.7 |
| 20260506021812 | 59 | 151 | 7.0 | 16.0 | 0.00 | 0.00 | 0.00 | 71 | 1005.8 |
| 20260506021612 | 59 | 151 | 6.0 | 16.0 | 0.00 | 0.00 | 0.00 | 71 | 1005.7 |
| 20260506021412 | 59 | 153 | 6.0 | 16.0 | 0.00 | 0.00 | 0.00 | 71 | 1005.7 |
| 20260506021212 | 59 | 155 | 6.0 | 16.0 | 0.00 | 0.00 | 0.00 | 71 | 1005.8 |
| 20260506021012 | 59 | 161 | 6.0 | 16.0 | 0.00 | 0.00 | 0.00 | 71 | 1005.7 |
| 20260506020612 | 59 | 163 | 7.0 | 10.0 | 0.00 | 0.00 | 0.00 | 71 | 1005.7 |
| 20260506020412 | 59 | 165 | 8.0 | 13.0 | 0.00 | 0.00 | 0.00 | 71 | 1005.7 |
| 20260506020212 | 59 | 166 | 8.0 | 14.0 | 0.00 | 0.00 | 0.00 | 71 | 1005.7 |
| 20260506015812 | 59 | 151 | 8.0 | 18.0 | 0.00 | 0.00 | 0.00 | 71 | 1005.6 |
| 20260506015612 | 59 | 148 | 8.0 | 18.0 | 0.00 | 0.00 | 0.00 | 70 | 1005.6 |
| 20260506015412 | 59 | 141 | 8.0 | 18.0 | 0.00 | 0.00 | 0.00 | 70 | 1005.5 |
| 20260506015212 | 59 | 137 | 8.0 | 18.0 | 0.00 | 0.00 | 0.00 | 70 | 1005.5 |